Upstream stations:
Downstream station:
SHEF ID: PODO2 Hwy 51
STATION TYPE:
STAGE STAGE(2) RIV-FLOW FLOW-INDX FLOW-VEL WTR-TEMP VOLTAGE BAT-LOAD
ft ft cfs ft/s mph F volt volt
Ccp-Rev Ccp-Rev Ccp-Rev Ccp-Rev Ccp-Rev Ccp-Rev Ccp-Rev Ccp-Rev
(US/Central)
04/01 00:00 13.91 -99999.00 0 -99999.00 ---- ---- ---- 12.61
04/01 01:00 13.93 -99999.00 0 -99999.00 ---- ---- ---- 12.57
04/01 02:00 13.89 -99999.00 0 -99999.00 ---- ---- ---- 12.54
04/01 03:00 13.91 -99999.00 0 -99999.00 ---- ---- ---- 12.53
04/01 04:00 13.87 -99999.00 0 -99999.00 ---- ---- ---- 12.50
04/01 05:00 13.88 -99999.00 0 -99999.00 ---- ---- ---- 12.47
04/01 06:00 13.86 -99999.00 0 -99999.00 ---- ---- ---- 12.44
04/01 07:00 13.90 -99999.00 0 -99999.00 ---- ---- ---- 12.42
04/01 08:00 13.89 -99999.00 0 -99999.00 ---- ---- ---- 12.40
04/01 09:00 13.90 -99999.00 0 -99999.00 ---- ---- ---- 13.09
04/01 10:00 13.91 -99999.00 0 -99999.00 ---- ---- ---- 13.43
04/01 11:00 13.92 -99999.00 0 -99999.00 ---- ---- ---- 13.19
04/01 12:00 13.89 -99999.00 0 -99999.00 ---- ---- ---- 13.06
04/01 13:00 13.93 -99999.00 0 -99999.00 ---- ---- ---- 13.02
04/01 14:00 13.93 -99999.00 0 -99999.00 ---- ---- ---- 12.98
04/01 15:00 13.95 -99999.00 0 -99999.00 ---- ---- ---- 12.94
04/01 16:00 13.92 -99999.00 0 -99999.00 ---- ---- ---- 12.92
04/01 17:00 13.89 -99999.00 0 -99999.00 ---- ---- ---- 12.90
04/01 18:00 13.80 -99999.00 0 -99999.00 ---- ---- ---- 12.86
04/01 19:00 13.74 -99999.00 0 -99999.00 ---- ---- ---- 12.79
04/01 20:00 13.59 -99999.00 0 -99999.00 ---- ---- ---- 12.71
04/01 21:00 13.51 -99999.00 0 -99999.00 ---- ---- ---- 12.67
04/01 22:00 13.43 -99999.00 0 -99999.00 ---- ---- ---- 12.64
04/01 23:00 13.36 -99999.00 0 -99999.00 ---- ---- ---- 12.63